Home > Weather > 's-Hertogenbosch > Past weeks

Flag for Netherlands Weather for the Past 2 Weeks in 's-Hertogenbosch, Netherlands

Now
46 °F

Overcast.


Feels Like: 38 °F
Forecast: 37 / 43 °F
Wind: 25 mph from Southwest

Location: Volkel

Current Time: Feb 9, 2016 at 1:35:43 AM

Latest Report: Feb 9, 2016 at 12:55 AM


Visibility: N/A

Pressure: 29.36 "Hg

Humidity: 71%

Dew point: 37 °F

Location of 's-HertogenboschLocation

Historic Weather in 's-Hertogenbosch — Graph

°F

's-Hertogenbosch Temperature Yesterday

Maximum temperature yesterday: 50 °F (at 9:55 AM)
Minimum temperature yesterday: 45 °F (at 8:01 AM)
Average temperature yesterday: 47 °F

High & Low Weather Summary for the Past Weeks

 TemperatureHumidityPressure
High59 °F (Jan 25, 1:55 PM)100% (Jan 25, 12:55 AM)30.36 "Hg (Jan 25, 12:55 AM)
Low36 °F (Jan 31, 1:55 AM)54% (Jan 25, 6:25 PM)29.18 "Hg (Feb 8, 7:55 AM)
Average47 °F83%29.92 "Hg
* Reported Jan 25 12:25 AM — Feb 9 12:25 AM, 's-Hertogenbosch, Weather by CustomWeather, © 2016

Note: Actual official high and low records may vary slightly from our data, if they occured in-between our weather recording intervals... More about our weather records

Advertising

's-Hertogenbosch Weather History for the Previous 24 Hours

 ConditionsComfort  
Time TempWeatherWind HumidityBarometerVisibility
12:25 AM
Tue, Feb 9
46 °FMostly cloudy.28 mph71%29.36 "HgN/A
11:55 PM
Mon, Feb 8
46 °FLight rain. Overcast.25 mph76%29.33 "Hg6 mi
11:25 PM46 °FLight rain. Overcast.24 mph82%29.33 "Hg5 mi
10:55 PM45 °FPassing clouds.26 mph87%29.33 "Hg5 mi
10:25 PM45 °FDrizzle. Overcast.31 mph87%29.30 "Hg4 mi
9:55 PM45 °FLight rain. Mostly cloudy.28 mph87%29.30 "Hg4 mi
9:25 PM45 °FDrizzle. Overcast.31 mph87%29.27 "Hg6 mi
9:00 PM45 °FDrizzle. Mostly cloudy.32 mph87%29.27 "Hg5 mi
8:55 PM45 °FDrizzle. Mostly cloudy.33 mph81%29.27 "Hg5 mi
8:25 PM46 °FDrizzle. Overcast.33 mph76%29.24 "Hg5 mi
7:59 PM45 °FDrizzle. Mostly cloudy.26 mph87%29.24 "Hg4 mi
7:55 PM45 °FDrizzle. Mostly cloudy.28 mph87%29.24 "Hg5 mi
7:25 PM45 °FDrizzle. Mostly cloudy.30 mph87%29.24 "Hg4 mi
7:03 PM45 °FPartly cloudy.32 mph87%29.24 "Hg4 mi
6:55 PM45 °FPartly cloudy.31 mph87%29.24 "Hg6 mi
6:25 PM45 °FLight rain. Overcast.30 mph81%29.21 "HgN/A
5:55 PM45 °FLight rain. Passing clouds.30 mph81%29.21 "HgN/A
5:25 PM48 °FCloudy.32 mph66%29.21 "HgN/A
4:55 PM48 °FBroken clouds.30 mph66%29.21 "HgN/A
4:25 PM48 °FPartly sunny.29 mph66%29.21 "HgN/A
3:55 PM48 °FMore clouds than sun.31 mph66%29.21 "HgN/A
3:25 PM48 °FScattered clouds.28 mph66%29.18 "HgN/A
2:55 PM48 °FMostly cloudy.28 mph66%29.21 "HgN/A
2:25 PM50 °FBroken clouds.32 mph62%29.21 "HgN/A
1:55 PM50 °FBroken clouds.29 mph62%29.21 "HgN/A
1:25 PM48 °FScattered clouds.30 mph62%29.18 "HgN/A
12:55 PM50 °FScattered clouds.28 mph62%29.18 "HgN/A
12:25 PM50 °FBroken clouds.29 mph62%29.18 "HgN/A
11:55 AM50 °FBroken clouds.30 mph67%29.18 "HgN/A
11:25 AM50 °FScattered clouds.29 mph67%29.18 "HgN/A
10:55 AM50 °FScattered clouds.25 mph67%29.18 "HgN/A
10:25 AM46 °FBroken clouds.15 mph82%29.18 "HgN/A
9:55 AM50 °FPartly sunny.24 mph76%29.18 "HgN/A
9:25 AM48 °FPartly sunny.20 mph82%29.18 "HgN/A
8:55 AM48 °FBroken clouds.20 mph82%29.18 "HgN/A
8:25 AM46 °FBroken clouds.14 mph87%29.21 "HgN/A
8:01 AM45 °FDrizzle. Mostly cloudy.10 mph93%29.21 "HgN/A
7:55 AM46 °FSprinkles. Partly cloudy.13 mph87%29.18 "Hg5 mi
7:25 AM46 °FMostly cloudy.20 mph87%29.21 "HgN/A
6:55 AM46 °FPartly cloudy.20 mph87%29.21 "HgN/A
6:25 AM46 °FLight rain. Partly cloudy.28 mph87%29.21 "HgN/A
5:55 AM46 °FRain showers. Partly cloudy.26 mph93%29.24 "Hg6 mi
5:25 AM46 °FLight rain. Passing clouds.28 mph87%29.21 "HgN/A
4:55 AM46 °FPassing clouds.28 mph87%29.24 "HgN/A
4:25 AM46 °FOvercast.26 mph82%29.24 "HgN/A
3:55 AM48 °FOvercast.28 mph76%29.27 "HgN/A
3:25 AM46 °FOvercast.25 mph76%29.30 "HgN/A
2:55 AM46 °FMostly cloudy.24 mph76%29.33 "HgN/A
2:25 AM46 °FDrizzle. Overcast.29 mph71%29.36 "HgN/A
1:55 AM46 °FOvercast.28 mph71%29.36 "HgN/A
1:25 AM46 °FLight rain. Mostly cloudy.21 mph66%29.39 "HgN/A
Weather by CustomWeather, © 2016

See weather overviewHow to use our weather pages